Tracking 25954 objects as of 14-Aug-2022
HD Live streaming from Space Station
objects crossing your sky now

KEPLER-14 (STELLA)

Track KEPLER-14 (STELLA) now!
10-day predictions


NORAD ID: 47526
Int'l Code: 2021-006DS
Perigee: 523.1 km
Apogee: 536.9 km
Inclination: 97.4 °
Period: 95.1 minutes
Semi major axis: 6900 km
RCS: Unknown
Launch date: January 24, 2021
Source: Canada (CA)
Launch site: AIR FORCE EASTERN TEST RANGE (AFETR)
aabbcc
Your satellite tracking list
Your tracking list is empty




NASA's NSSDC Master Catalog

Two Line Element Set (TLE):
1 47526U 21006DS  22225.69501012  .00002786  00000-0  15520-3 0  9999
2 47526  97.4320 282.3870 0009992  94.8410 265.3963 15.14382629 86847
Source of the keplerian elements: AFSPC